timestamp,wind_dir_avg,wind_spd_max_dir,wind_spd_avg,wind_spd_gust,battery_voltage,lat,long
2018-06-22 00:00:00+00:00,229.0,227.0,8.52,9.65,,47.59359,-54.27349
2018-06-22 00:10:00+00:00,220.0,221.0,7.86,8.7,,47.59359,-54.27349
2018-06-22 00:20:00+00:00,221.0,221.0,7.03,7.65,,47.59359,-54.27349
2018-06-22 00:30:00+00:00,224.0,222.0,7.3,8.16,,47.59359,-54.27349
2018-06-22 00:40:00+00:00,231.0,231.0,8.15,9.31,,47.59359,-54.27349
2018-06-22 00:50:00+00:00,230.0,230.0,8.61,9.91,,47.59359,-54.27349
2018-06-22 01:00:00+00:00,218.0,216.0,7.26,8.2,,47.59359,-54.27349
2018-06-22 01:10:00+00:00,227.0,231.0,9.37,10.64,,47.59359,-54.27349
2018-06-22 01:20:00+00:00,227.0,227.0,8.67,10.14,,47.59359,-54.27349
2018-06-22 01:30:00+00:00,228.0,240.0,9.15,12.99,,47.59359,-54.27349
2018-06-22 01:40:00+00:00,223.0,221.0,8.51,9.45,,47.59359,-54.27349
2018-06-22 01:50:00+00:00,227.0,229.0,9.09,10.39,,47.59359,-54.27349
2018-06-22 02:00:00+00:00,230.0,226.0,8.5,9.32,,47.59359,-54.27349
2018-06-22 02:10:00+00:00,226.0,225.0,9.6,10.54,,47.59359,-54.27349
2018-06-22 02:20:00+00:00,226.0,224.0,9.16,9.92,,47.59359,-54.27349
2018-06-22 02:30:00+00:00,230.0,233.0,9.07,10.13,,47.59359,-54.27349
2018-06-22 02:40:00+00:00,226.0,228.0,8.0,8.79,,47.59359,-54.27349
2018-06-22 02:50:00+00:00,230.0,232.0,7.46,8.39,,47.59359,-54.27349
2018-06-22 03:00:00+00:00,225.0,229.0,7.09,7.6,,47.59359,-54.27349
2018-06-22 03:10:00+00:00,230.0,232.0,8.59,9.52,,47.59359,-54.27349
2018-06-22 03:20:00+00:00,234.0,234.0,7.13,8.22,,47.59359,-54.27349
2018-06-22 03:30:00+00:00,232.0,233.0,7.24,8.1,,47.59359,-54.27349
2018-06-22 03:40:00+00:00,220.0,219.0,7.34,8.2,,47.59359,-54.27349
2018-06-22 03:50:00+00:00,229.0,231.0,6.16,7.16,,47.59359,-54.27349
2018-06-22 04:00:00+00:00,231.0,233.0,6.38,7.16,,47.59359,-54.27349
2018-06-22 04:10:00+00:00,230.0,227.0,7.02,8.22,,47.59359,-54.27349
2018-06-22 04:20:00+00:00,242.0,240.0,6.1,6.94,,47.59359,-54.27349
2018-06-22 04:30:00+00:00,240.0,240.0,5.36,5.91,,47.59359,-54.27349
2018-06-22 04:40:00+00:00,233.0,233.0,5.5,5.95,,47.59359,-54.27349
2018-06-22 04:50:00+00:00,231.0,232.0,6.1,6.55,,47.59359,-54.27349
2018-06-22 05:00:00+00:00,232.0,233.0,5.32,5.82,,47.59359,-54.27349
2018-06-22 05:10:00+00:00,223.0,226.0,5.74,6.08,,47.59359,-54.27349
2018-06-22 05:20:00+00:00,233.0,232.0,4.74,5.35,,47.59359,-54.27349
2018-06-22 05:30:00+00:00,225.0,222.0,4.91,5.43,,47.59359,-54.27349
2018-06-22 05:40:00+00:00,237.0,239.0,3.61,4.13,,47.59359,-54.27349
2018-06-22 05:50:00+00:00,214.0,216.0,5.11,5.56,,47.59359,-54.27349
2018-06-22 06:00:00+00:00,220.0,221.0,4.27,4.67,,47.59359,-54.27349
2018-06-22 06:10:00+00:00,225.0,227.0,4.56,4.92,,47.59359,-54.27349
2018-06-22 06:20:00+00:00,222.0,223.0,4.79,5.09,,47.59359,-54.27349
2018-06-22 06:30:00+00:00,217.0,218.0,4.4,4.93,,47.59359,-54.27349
2018-06-22 06:40:00+00:00,233.0,232.0,3.8,4.25,,47.59359,-54.27349
2018-06-22 06:50:00+00:00,233.0,234.0,4.05,4.4,,47.59359,-54.27349
2018-06-22 07:00:00+00:00,217.0,219.0,4.59,5.16,,47.59359,-54.27349
2018-06-22 07:10:00+00:00,218.0,220.0,4.34,4.86,,47.59359,-54.27349
2018-06-22 07:20:00+00:00,218.0,218.0,3.6,4.16,,47.59359,-54.27349
2018-06-22 07:30:00+00:00,230.0,228.0,4.04,4.46,,47.59359,-54.27349
2018-06-22 07:40:00+00:00,250.0,250.0,3.09,3.44,,47.59359,-54.27349
2018-06-22 07:50:00+00:00,244.0,245.0,1.96,2.16,,47.59359,-54.27349
2018-06-22 08:00:00+00:00,221.0,228.0,1.96,2.09,,47.59359,-54.27349
2018-06-22 08:10:00+00:00,236.0,237.0,3.31,3.44,,47.59359,-54.27349
2018-06-22 08:20:00+00:00,228.0,234.0,2.47,3.0,,47.59359,-54.27349
2018-06-22 08:30:00+00:00,235.0,234.0,2.33,2.5,,47.59359,-54.27349
2018-06-22 08:40:00+00:00,164.0,137.0,0.49,0.96,,47.59359,-54.27349
2018-06-22 08:50:00+00:00,241.0,240.0,0.22,0.63,,47.59359,-54.27349
2018-06-22 09:00:00+00:00,314.0,308.0,2.24,2.75,,47.59359,-54.27349
2018-06-22 09:10:00+00:00,287.0,288.0,1.71,1.95,,47.59359,-54.27349
2018-06-22 09:20:00+00:00,272.0,275.0,2.19,2.32,,47.59359,-54.27349
2018-06-22 09:30:00+00:00,289.0,288.0,2.6,2.78,,47.59359,-54.27349
2018-06-22 09:40:00+00:00,313.0,313.0,2.31,2.53,,47.59359,-54.27349
2018-06-22 09:50:00+00:00,262.0,262.0,2.5,2.76,,47.59359,-54.27349
2018-06-22 10:00:00+00:00,256.0,254.0,2.56,2.73,,47.59359,-54.27349
2018-06-22 10:10:00+00:00,222.0,223.0,2.65,2.78,,47.59359,-54.27349
2018-06-22 10:20:00+00:00,224.0,223.0,1.85,2.06,,47.59359,-54.27349
2018-06-22 10:30:00+00:00,221.0,218.0,2.77,2.99,,47.59359,-54.27349
2018-06-22 10:40:00+00:00,205.0,204.0,1.83,2.19,,47.59359,-54.27349
2018-06-22 10:50:00+00:00,211.0,213.0,1.6,1.89,,47.59359,-54.27349
2018-06-22 11:00:00+00:00,241.0,241.0,1.67,1.88,,47.59359,-54.27349
2018-06-22 11:10:00+00:00,223.0,239.0,1.33,1.91,,47.59359,-54.27349
2018-06-22 11:20:00+00:00,240.0,252.0,4.63,6.62,,47.59359,-54.27349
2018-06-22 11:30:00+00:00,218.0,223.0,3.56,3.9,,47.59359,-54.27349
2018-06-22 11:40:00+00:00,220.0,222.0,4.33,4.74,,47.59359,-54.27349
2018-06-22 11:50:00+00:00,212.0,212.0,3.77,4.01,,47.59359,-54.27349
2018-06-22 12:00:00+00:00,215.0,226.0,2.96,3.37,,47.59359,-54.27349
2018-06-22 12:10:00+00:00,220.0,222.0,2.55,2.73,,47.59359,-54.27349
2018-06-22 12:20:00+00:00,213.0,211.0,2.81,3.01,,47.59359,-54.27349
2018-06-22 12:30:00+00:00,210.0,211.0,2.91,3.05,,47.59359,-54.27349
2018-06-22 12:40:00+00:00,221.0,223.0,2.85,3.01,,47.59359,-54.27349
2018-06-22 12:50:00+00:00,225.0,229.0,2.25,2.35,,47.59359,-54.27349
2018-06-22 13:00:00+00:00,213.0,213.0,3.16,3.61,,47.59359,-54.27349
2018-06-22 13:10:00+00:00,212.0,212.0,4.01,4.17,,47.59359,-54.27349
2018-06-22 13:20:00+00:00,214.0,213.0,4.8,5.05,,47.59359,-54.27349
2018-06-22 13:30:00+00:00,212.0,211.0,4.87,5.12,,47.59359,-54.27349
2018-06-22 13:40:00+00:00,219.0,219.0,5.48,5.73,,47.59359,-54.27349
2018-06-22 13:50:00+00:00,212.0,213.0,5.18,5.28,,47.59359,-54.27349
2018-06-22 14:00:00+00:00,213.0,214.0,5.74,6.16,,47.59359,-54.27349
2018-06-22 14:10:00+00:00,218.0,218.0,5.53,5.86,,47.59359,-54.27349
2018-06-22 14:20:00+00:00,216.0,216.0,5.82,6.21,,47.59359,-54.27349
2018-06-22 14:30:00+00:00,207.0,212.0,5.53,5.98,,47.59359,-54.27349
2018-06-22 14:40:00+00:00,201.0,203.0,6.43,7.0,,47.59359,-54.27349
2018-06-22 14:50:00+00:00,206.0,208.0,6.24,6.49,,47.59359,-54.27349
2018-06-22 15:00:00+00:00,214.0,214.0,6.77,6.97,,47.59359,-54.27349
2018-06-22 15:10:00+00:00,212.0,212.0,7.2,7.46,,47.59359,-54.27349
2018-06-22 15:20:00+00:00,216.0,216.0,6.88,7.11,,47.59359,-54.27349
2018-06-22 15:30:00+00:00,219.0,219.0,7.47,7.8,,47.59359,-54.27349
2018-06-22 15:40:00+00:00,220.0,222.0,6.42,7.04,,47.59359,-54.27349
2018-06-22 15:50:00+00:00,220.0,222.0,6.28,6.71,,47.59359,-54.27349
2018-06-22 16:00:00+00:00,222.0,223.0,5.91,6.42,,47.59359,-54.27349
2018-06-22 16:10:00+00:00,224.0,223.0,6.13,6.47,,47.59359,-54.27349
2018-06-22 16:20:00+00:00,216.0,216.0,5.14,5.55,,47.59359,-54.27349
2018-06-22 16:30:00+00:00,225.0,223.0,6.26,6.81,,47.59359,-54.27349
2018-06-22 16:40:00+00:00,226.0,229.0,7.13,7.65,,47.59359,-54.27349
2018-06-22 16:50:00+00:00,225.0,223.0,7.11,7.85,,47.59359,-54.27349
2018-06-22 17:00:00+00:00,226.0,228.0,7.25,8.03,,47.59359,-54.27349
2018-06-22 17:10:00+00:00,223.0,222.0,7.98,8.71,,47.59359,-54.27349
2018-06-22 17:20:00+00:00,222.0,223.0,7.78,8.48,,47.59359,-54.27349
2018-06-22 17:30:00+00:00,220.0,218.0,7.03,7.57,,47.59359,-54.27349
2018-06-22 17:40:00+00:00,225.0,227.0,7.47,8.3,,47.59359,-54.27349
2018-06-22 17:50:00+00:00,224.0,223.0,6.83,7.4,,47.59359,-54.27349
2018-06-22 18:00:00+00:00,221.0,221.0,6.71,7.16,,47.59359,-54.27349
2018-06-22 18:10:00+00:00,221.0,222.0,6.1,6.63,,47.59359,-54.27349
2018-06-22 18:20:00+00:00,221.0,223.0,6.53,7.05,,47.59359,-54.27349
2018-06-22 18:30:00+00:00,217.0,218.0,5.73,6.51,,47.59359,-54.27349
2018-06-22 18:40:00+00:00,215.0,215.0,6.86,7.69,,47.59359,-54.27349
2018-06-22 18:50:00+00:00,217.0,216.0,7.6,8.13,,47.59359,-54.27349
2018-06-22 19:00:00+00:00,213.0,216.0,6.61,7.46,,47.59359,-54.27349
2018-06-22 19:10:00+00:00,220.0,218.0,6.88,7.61,,47.59359,-54.27349
2018-06-22 19:20:00+00:00,215.0,218.0,7.66,8.41,,47.59359,-54.27349
2018-06-22 19:30:00+00:00,221.0,225.0,7.89,8.85,,47.59359,-54.27349
2018-06-22 19:40:00+00:00,226.0,227.0,9.2,10.39,,47.59359,-54.27349
2018-06-22 19:50:00+00:00,225.0,223.0,9.13,9.82,,47.59359,-54.27349
2018-06-22 20:00:00+00:00,220.0,222.0,8.61,9.58,,47.59359,-54.27349
2018-06-22 20:10:00+00:00,225.0,224.0,8.94,10.04,,47.59359,-54.27349
2018-06-22 20:20:00+00:00,221.0,224.0,8.21,9.15,,47.59359,-54.27349
2018-06-22 20:30:00+00:00,222.0,224.0,7.74,8.4,,47.59359,-54.27349
2018-06-22 20:40:00+00:00,223.0,225.0,7.75,8.59,,47.59359,-54.27349
2018-06-22 20:50:00+00:00,218.0,218.0,6.6,7.44,,47.59359,-54.27349
2018-06-22 21:00:00+00:00,221.0,221.0,6.6,7.36,,47.59359,-54.27349
2018-06-22 21:10:00+00:00,217.0,218.0,6.6,7.14,,47.59359,-54.27349
2018-06-22 21:20:00+00:00,217.0,220.0,6.66,7.25,,47.59359,-54.27349
2018-06-22 21:30:00+00:00,222.0,224.0,6.53,7.06,,47.59359,-54.27349
2018-06-22 21:40:00+00:00,228.0,229.0,6.56,7.11,,47.59359,-54.27349
2018-06-22 21:50:00+00:00,221.0,222.0,5.78,6.2,,47.59359,-54.27349
2018-06-22 22:00:00+00:00,219.0,222.0,5.21,5.58,,47.59359,-54.27349
2018-06-22 22:10:00+00:00,218.0,223.0,5.56,6.02,,47.59359,-54.27349
2018-06-22 22:20:00+00:00,214.0,217.0,5.12,5.42,,47.59359,-54.27349
2018-06-22 22:30:00+00:00,212.0,210.0,5.23,5.59,,47.59359,-54.27349
2018-06-22 22:40:00+00:00,216.0,218.0,5.42,5.66,,47.59359,-54.27349
2018-06-22 22:50:00+00:00,217.0,220.0,4.89,5.41,,47.59359,-54.27349
2018-06-22 23:00:00+00:00,214.0,216.0,4.9,5.18,,47.59359,-54.27349
2018-06-22 23:10:00+00:00,215.0,218.0,5.72,6.84,,47.59359,-54.27349
2018-06-22 23:20:00+00:00,215.0,216.0,5.69,6.12,,47.59359,-54.27349
2018-06-22 23:30:00+00:00,216.0,214.0,5.87,6.29,,47.59359,-54.27349
2018-06-22 23:40:00+00:00,217.0,217.0,6.16,6.35,,47.59359,-54.27349
2018-06-22 23:50:00+00:00,212.0,216.0,5.04,5.31,,47.59359,-54.27349
